This is the latest recevied weather packets stored in our database for station/object N4OOJ-13. If no packets are shown the sender has not sent any weather packets the latest 1 day(s).
| Time | Temp. | Humidity | Pressure | Rain* | Wind** | Luminosity | Snow |
|---|---|---|---|---|---|---|---|
| 1778047819 | 12.78° C | 99% | 1017.8 hPa | 0 mm | - | - | - |
| 1778046632 | 13.33° C | 99% | 1017.5 hPa | 0 mm | - | - | - |
| 1778046032 | 13.33° C | 99% | 1017.5 hPa | 0 mm | - | - | - |
| 1778045426 | 13.33° C | 99% | 1017.7 hPa | 0 mm | - | - | - |
| 1778044827 | 13.33° C | 99% | 1018 hPa | 0 mm | - | - | - |
| 1778043026 | 13.89° C | 98% | 1018.3 hPa | 0 mm | - | - | - |
| 1778041227 | 13.89° C | 98% | 1018.7 hPa | 0 mm | - | - | - |
| 1778040621 | 13.89° C | 98% | 1018.7 hPa | 0 mm | - | - | - |
| 1778040032 | 13.89° C | 97% | 1018.6 hPa | 0 mm | - | - | - |
| 1778039431 | 14.44° C | 97% | 1018.5 hPa | 0 mm | - | - | - |
| 1778038825 | 14.44° C | 97% | 1018.5 hPa | 0 mm | - | - | - |
| 1778038220 | 14.44° C | 96% | 1018.3 hPa | 0 mm | - | - | - |
| 1778037620 | 14.44° C | 96% | 1018.4 hPa | 0 mm | - | - | - |
| 1778037026 | 14.44° C | 96% | 1018.4 hPa | 0 mm | - | - | - |
| 1778036420 | 14.44° C | 95% | 1018.5 hPa | 0 mm | - | - | - |
| 1778035826 | 15° C | 92% | 1018.5 hPa | 0 mm | - | - | - |
| 1778035220 | 15° C | 92% | 1018.2 hPa | 0 mm | - | - | - |
| 1778034621 | 15.56° C | 91% | 1018.5 hPa | 0 mm | - | - | - |
| 1778033427 | 15.56° C | 90% | 1018.6 hPa | 0 mm | - | - | - |
| 1778032822 | 16.11° C | 88% | 1018.5 hPa | 0 mm | - | - | - |
| 1778031016 | 17.22° C | 83% | 1018 hPa | 0 mm | - | - | - |
| 1778030423 | 17.22° C | 82% | 1018 hPa | 0 mm | - | - | - |
| 1778029817 | 17.78° C | 80% | 1018 hPa | 0 mm | - | - | - |
| 1778029218 | 18.33° C | 79% | 1018.1 hPa | 0 mm | - | - | - |
| 1778028019 | 18.89° C | 74% | 1017.8 hPa | 0 mm | - | - | - |
* Rain latest hour (hover to see other rain measurements)
** Current wind speed in m/s (hover to see current wind gust speed)